Regional Weather Roundup
Issued by NWS

Home | Current Version | Previous Version | Text Only | Print | Product List | Glossary On
Versions: 1 2 3 4 5 6 7 8 9 10 11 12 13 14 15 16 17 18 19 20 21 22 23 24 25 26 27 28 29 30 31 32 33 34 35 36 37 38 39 40 41 42 43 44 45 46 47 48 49 50
000
ASUS43 KTOP 181908
RWRKS

WEATHER ROUNDUP FOR KANSAS
NATIONAL WEATHER SERVICE GOODLAND KS
200 PM CDT FRI AUG 18 2017

NOTE:  "FAIR" INDICATES FEW OR NO CLOUDS BELOW 12,000 FEET WITH NO
SIGNIFICANT WEATHER AND/OR OBSTRUCTIONS TO VISIBILITY.

KSZ001>006-013>018-027>032-041>047-182000-
NORTHWEST KANSAS

CITY           SKY/WX    TMP DP  RH WIND       PRES   REMARKS
GOODLAND       SUNNY     84  56  38 N13       30.09F
HILL CITY      SUNNY     85  65  51 N10       30.00F
RUSSELL        SUNNY     88  62  41 W15G25    29.96F
$$

KSZ061>065-074>080-084>089-182000-
SOUTHWEST KANSAS

CITY           SKY/WX    TMP DP  RH WIND       PRES   REMARKS
DODGE CITY     SUNNY     89  60  37 W12       30.02F
ELKHART          N/A     84  66  54 W8          N/A
GARDEN CITY    SUNNY     87  63  44 W15       30.03F
GREAT BEND     SUNNY     88  63  43 W9        29.97F
LIBERAL        SUNNY     85  67  54 W10       30.06F
PRATT          SUNNY     93  55  28 W12G22    29.98F
$$

KSZ066>073-081>083-090>101-182000-
SOUTHEAST KANSAS

CITY           SKY/WX    TMP DP  RH WIND       PRES   REMARKS
CHANUTE        SUNNY     89  75  63 SW8       29.96F HX  99
COFFEYVILLE    MOSUNNY   83  76  79 S10       29.93F
HUTCHINSON     SUNNY     86  65  49 CALM      29.97F
MEDICINE LODGE   N/A     92  60  34 MISG      29.95F
NEWTON         SUNNY     86  67  52 W5        29.99F
PARSONS        CLOUDY    84  76  76 S7        29.97F
WICHITA INTL   MOSUNNY   90  65  43 N8        29.96F
WICHITA JABRA  SUNNY     87  65  47 CALM      29.97F
WICHITA MCCONL SUNNY     89  62  40 NE7       29.96F
WINFIELD       SUNNY     85  70  60 S7        29.98F
$$

KSZ007>012-019>026-033>040-048>060-102>105-182000-
NORTHEAST KANSAS

CITY           SKY/WX    TMP DP  RH WIND       PRES   REMARKS
CONCORDIA      SUNNY     86  66  51 NW9       29.95F
EMPORIA        SUNNY     86  66  51 W7        29.96F
LAWRENCE       SUNNY     87  68  52 S7        29.92F
MANHATTAN      SUNNY     88  66  48 MISG      29.94F
MARYSVILLE     SUNNY     90  61  37 NW6       29.93F
OLATHE IND     SUNNY     84  68  58 SW12      29.96F
OLATHE EXE     SUNNY     82  69  64 SW12      29.95F
SALINA         SUNNY     92  61  35 SW12G18   29.95F
TOPEKA BILLARD SUNNY     91  63  39 NW13      29.92F
TOPEKA FORBES  SUNNY     89  64  43 W12       29.94F
$$



USA.gov is the U.S. government's official web portal to all federal, state and local government web resources and services.